Humidity-temperature Sensor

Selected Measurement Type: Air Temperature

 
Air Temperature [°C]     6 entries per hour
Showing data from 4/4/2023 (00:00:00 Z) to 4/3/2023 (00:01:00 Z)
Previous Next [ Day | 3-Days | 7-Days ]
First Last
Prev [ Day | 3-Days | 7-Days ] Next
First Last

Start Time:     :
End Time:     :     
Time (in GMT) :00 :50 :40 :30 :20 :10
Previous Next [ Day | 3-Days | 7-Days ]
First Last
Prev [ Day | 3-Days | 7-Days ] Next
First Last


123 => good data
MM => data is determined as missing
-- => data not received/configured
Back to Top Back to Top
4/4/2023 00:00 to 23:10 27.46 27.49 27.53 27.49 27.56 27.50
4/3/2023 23:00 to 22:10 27.61 27.40 27.50 27.48 27.44 26.90
4/3/2023 22:00 to 21:10 27.17 27.05 26.94 26.96 26.87 27.11
4/3/2023 21:00 to 20:10 27.05 26.95 27.19 27.17 27.11 27.35
4/3/2023 20:00 to 19:10 26.99 26.63 26.30 25.48 25.48 26.10
4/3/2023 19:00 to 18:10 27.07 27.43 27.39 27.30 27.43 27.50
4/3/2023 18:00 to 17:10 27.53 27.35 27.75 27.54 27.47 27.40
4/3/2023 17:00 to 16:10 27.52 27.77 27.46 27.64 27.48 27.53
4/3/2023 16:00 to 15:10 27.56 27.45 27.39 27.39 27.45 27.35
4/3/2023 15:00 to 14:10 27.34 27.32 27.41 27.27 27.30 27.18
4/3/2023 14:00 to 13:10 27.18 27.22 27.07 26.89 26.84 26.94
4/3/2023 13:00 to 12:10 26.70 26.78 26.78 26.69 26.84 26.75
4/3/2023 12:00 to 11:10 26.76 26.56 26.75 26.81 26.64 26.88
4/3/2023 11:00 to 10:10 26.72 26.74 26.83 26.83 26.87 26.89
4/3/2023 10:00 to 9:10 26.85 26.84 26.93 26.77 26.90 26.91
4/3/2023 09:00 to 8:10 26.85 26.91 26.85 27.02 26.94 27.02
4/3/2023 08:00 to 7:10 27.04 27.06 26.93 26.95 27.18 27.13
4/3/2023 07:00 to 6:10 27.13 27.14 27.12 27.10 27.20 27.09
4/3/2023 06:00 to 5:10 27.13 27.19 27.09 27.10 27.13 27.11
4/3/2023 05:00 to 4:10 27.16 27.09 27.04 27.12 27.14 27.18
4/3/2023 04:00 to 3:10 27.10 27.09 27.16 27.16 27.21 27.13
4/3/2023 03:00 to 2:10 27.20 27.12 27.18 27.02 27.19 27.07
4/3/2023 02:00 to 1:10 27.08 27.09 27.19 27.15 27.23 27.17
4/3/2023 01:00 to 0:10 27.34 27.32 27.33 27.29 27.34 27.26